Погода в Ореле

Хотите узнать прогноз погоды в Ореле? Тогда Вам сюда: Погода в Ореле

Поиск расширенной информации на нашем сайте:

Полезная информация:

Новости сайта



02.01.2020
Опубликован Долгосрочный прогноз погоды по городам России и ближнего зарубежья на январь 2020 года.
Карты: Прогноз на январь и февраль 2020 года, Сравнение прогнозируемой аномалии приземной температуры воздуха на январь 2020 года по разным моделям.




Погода в Ореле - сегодня

Время (UTC), дата Ветер
(°,м/с) 
Видим.   Явления Облачность Т
(°С)
Тd
(°С)
f(%) Тe
(°С)
Pmin
(гПа)
dP
(гПа)
Po
(мм)
O2
(г/м3)
Тmin Tmax R s Состояние
почвы
00 16.01.22 310 (СЗ) 20000 м    10/10 600 м кучево-дожд. 
[Cb calv]
-2.2 -7.1 69 -3  1008.2  1.6  738  300           
03 16.01.22 290 (З) 10 км  слаб. ливневой снег  8/5 600 м кучево-дожд., средняя, верхняя 
[Cb calv|Ac trans|Ci fib]
-2.5 -3.8 91 -4  1008.7  0.5  738  301  -2.9    0.3     
06 16.01.22 310 (СЗ) 10 км  слаб. ливневой снег  10/8 600 м кучево-дожд., средняя 
[Cb calv|As op]
-1.7 -4.7 80 -3  1010.7  2.1  740  300  -2.9    0.4  30  равномерный
сухой снег
100% 
09 16.01.22 310 (СЗ) 20000 м  в посл. час ливневой снег  10/6 600 м кучево-дожд., средняя 
[Cb calv|As op]
-1.2 -5 75 -2  1012.3  1.5  741  300           
12 16.01.22 310 (СЗ) 20000 м  {ливн. осадки}  5/3 600 м кучево-дожд., средняя 
[Cb calv|Ac trans]
-1.2 -7.7 61 -2  1012.8  0.5  741  301           
15 16.01.22 260 (З) 20000 м    8/0 средняя 
[Ac trans]
-5.9 -9.5 76 -6  1014  0.8  742  306      0.4     
18 16.01.22 260 (З) 20000 м    ясно 
-8 -10.3 83 -8  1013  -1.2  741  309    -0.5  0.0     
21 16.01.22 210 (ЮЗ) 20000 м    ясно 
-7.8 -10 84 -9  1011.1  -1.8  740  308           
00 17.01.22 200 (Ю) 20000 м    ясно 
-8 -10 85 -11  1008.4  -2.7  738  307           
03 17.01.22 190 (Ю) 20000 м    9/0 средняя 
[Ac trans]
-6.1 -8.4 84 -9  1004.1  -4  735  304  -9.2         
06 17.01.22 200 (Ю) 5-10{10}  20000 м    9/4 600 м средняя 
[Sc|Ac trans]
-4.6 -7.1 83 -8  999  -4.8  731  300  -9.2      30  равномерный
сухой снег
100% 
09 17.01.22 210 (ЮЗ) 5{10}  4000 м  слаб. снег  10/10 300 м 
[Frnb|Ns]
-3 -5.2 85 -7  995.5  -3.3  728  297           
12 17.01.22 210 (ЮЗ) 4{11}  4000 м  слаб. снег  10/10 300 м 
[Frnb|Ns]
-2.1 -3.5 90 -5  992.5  -2.9  726  295           
15 17.01.22 200 (Ю) 20000 м  {снег}  10/10 600 м 
[Sc]
-1 -2.5 90 -4  989.8  -2.5  724  293         
18 17.01.22 190 (Ю) 10 км  слаб. ливневой снег  10/5 600 м кучево-дожд., средняя 
[Cb calv|As op]
-0.5 -2.1 89 -2  988.7  -1  724  292    -0.5     
21 17.01.22 200 (Ю) 4000 м  слаб. ливневой снег  10/5 600 м кучево-дожд., средняя 
[Cb calv|As op]
-0.2 -1.3 92 -3  988.3  -0.4  723  292           
00 18.01.22 240 (ЮЗ) 4000 м  дымка{ливн. осадки}  10/10 600 м кучево-дожд. 
[Cb calv]
-0.2 -1.8 89 -1  988.8  0.5  724  292           
03 18.01.22 200 (Ю) 4000 м  дымка  10/10 600 м кучево-дожд. 
[Cb calv]
-0.8 -2.2 90 -2  989.9  725  293  -1    0.8     
06 18.01.22 330 (СЗ) 1000 м  ливневой снег  10/10 300 м кучево-дожд. 
[Cb cap]
-2.9 -3.8 93 -4  993.3  3.2  727  296  -2.9    0.3  30  равномерный
сухой снег
100% 
09 18.01.22 340 (С) 4000 м  слаб. ливневой снег  10/10 300 м кучево-дожд. 
[Cb calv]
-4.1 -6.5 83 -6  998.4  4.8  731  299           
12 18.01.22 350 (С) 3{11}  10 км  слаб. ливневой снег  10/8 600 м кучево-дожд., средняя 
[Cb calv|As op]
-4.7 -7.7 79 -7  1002.6  734  301           
15 18.01.22 350 (С) 3{10}  2000 м  слаб. ливневой снег  10/10 300 м кучево-дожд. 
[Cb calv]
-6.4 -8 88 -9  1008.1  5.2  737  305         
18 18.01.22 360 (С) 3{12}  10 км  слаб. ливневой снег  8/6 600 м кучево-дожд., средняя 
[Cb calv|Ac trans]
-6.5 -10.1 76 -9  1012.4  4.2  741  307    -2.9     
21 18.01.22 360 (С) 3{11}  20000 м  {ливн. осадки}  10/10 600 м кучево-дожд. 
[Cb calv]
-6.2 -9.6 77 -9  1015.5  3.1  743  307           
00 19.01.22 350 (С) 3{10}  20000 м  {ливн. осадки}  10/10 600 м кучево-дожд. 
[Cb calv]
-6.4 -9.9 76 -9  1017.3  1.7  744  308           
Время (UTC), дата Ветер
(°,м/с) 
Видим.   Явления Облачность Т
(°С)
Тd
(°С)
f(%) Тe
(°С)
Pmin
(гПа)
dP
(гПа)
Po
(мм)
O2
(г/м3)
Тmin Tmax R s Состояние
почвы

Для получения пояснительной информации подведите курсор к названию столбца.

ПОГОДА в Ореле - архив

Всё, что Вы хотите узнать о погоде в Ореле - удобно и подробно!

Выберите нужную дату (начиная с 1 января 2019* года) и нажмите кнопку "Найти".
Будут отображены архивные сводки погоды по пункту Орел, начиная с указанной даты.


Отображать данные в формате CSV (для использования в таблицах Excel)


Внимание! Наш архив погоды предназначен исключительно для личного некоммерческого использования в познавательных целях. Если Вам необходимы официальные справки о состоянии погоды (для производственных, юридических, коммерческих и т.п. целей), обращайтесь в органы Росгидромета.

*Примечание: данная дата относится к архиву по метеостанциям СССР (Россия, СНГ, Балтия).
Архив по метеостанциям Зарубежной Европы и Азии (кроме Китая) хранится 10 дней, по другим регионам земного шара (Китай, Африка, Америка, Австралия, Океания) - 1 день.

Орел - район местоположения метеостанции


Название, широта, долгота, высота метеостанции:
Орел 52.9°ш. 36°д. 196 м над ур. моря [Российская Федерация]

Дополнительная информация

В oтличие oт бoльшинства пoгoдных сайтoв мы публикуем пoдрoбную метеoинфoрмацию в детальнoм прoфессиoнальнoм фoрмате.

Характеристики температуры и влажнoсти вoздуха измеряются на высoте 2 м в тени вдали oт зданий и деревьев.
Скoрoсть ветра измеряется на высoте 10 м (на урoвне рoста челoвека скoрoсть ветра ниже в 1.5-2 раза). Если метеoстанция нахoдится в гoрoде или в лесу, тo скoрoсть ветра занижена на 2-4 м/с пo сравнению с oткрытым местoм. Скoрoсть ветра над акватoриями крупных рек и oзёр, а также на вершинах хoлмoв на 2-5 м/с выше, чем в oбычных услoвиях.
Атмoсфернoе давление в разных тoчках местнoсти мoжет значительнo oтличаться oт давления на метеoстанции, в зависимoсти oт услoвий рельефа (при пoдъёме на 10 м давление пoнижается примернo на 1 мм рт.ст.).